Location: *
(53.4003°S, 165.3236°W)
Time: 02:53:03
(UTC+00:00)

CZ-2C R/B - Pass Details

Date: 11 December 2023
Orbit: 665 x 781 km, 98.3° (Epoch: 24 February)

Event Time Altitude Azimuth Distance (km) Brightness Sun altitude
Rises 13:28:46 0° 13° (NNE) 3,218 5.3 -6.6°
Reaches altitude 10° 13:31:05 10° 12° (NNE) 2,285 4.6 -6.4°
Maximum altitude 13:36:08 78° 285° (WNW) 768 2.5 -6.0°
Drops below altitude 10° 13:41:04 10° 197° (SSW) 2,238 5.4 -5.5°
Sets 13:43:19 0° 196° (SSW) 3,147 6.2 -5.3°
